Dewpoint
61 63 64 63 64 63 64 63 63 63 64 63 63 62 61 60 59 57 56 57 54 55 51 53 62 61 61 62 60 60 61 62 61 62 61 62 63 63 66 66 65 65 65 65 64 65 65 65 65 64 64 64 63 63 63 63 63 62 62 62 63 63 63 64 64 65 65 66 67 68 68 69 70 72
64 63 62 62 61 63 63 62 62 64 65 64 64 64 63 63 61 60 58 58 58 57 58 54 58 64 61 60 61 61 61 63 61 61 62 61 62 63 64 66 65 65 65 64 63 64 64 64 65 64 64 64 64 63 63 63 63 63 63 63 63 63 63 64 64 64 64 65 66 67 68 68 69 70
64 64 63 64 62 63 63 63 62 63 63 63 64 64 64 64 63 62 60 58 60 59 58 58 57 59 62 59 60 60 61 63 61 61 62 63 64 66 65 65 65 64 64 63 63 63 62 63 63 63 63 63 63 63 63 63 63 63 63 63 63 63 63 64 64 63 63 64 65 65 66 67 68 69
63 63 63 63 64 63 64 65 64 64 64 64 64 64 64 65 66 66 64 61 60 61 58 59 60 60 61 62 61 62 62 62 67 63 64 65 66 64 64 65 65 64 63 63 63 62 62 62 63 63 62 63 63 63 64 63 63 63 63 63 63 63 63 63 63 63 63 63 63 64 64 65 67 68
63 64 63 64 64 64 64 64 63 62 63 64 65 66 66 65 64 64 63 62 62 62 63 61 59 60 62 60 62 62 61 62 62 64 64 64 63 63 63 63 64 64 63 63 63 62 62 62 62 62 62 63 63 64 64 63 62 63 62 62 62 62 63 62 62 62 62 62 63 63 63 64 65 66
64 64 64 64 64 65 64 64 63 63 61 62 61 64 65 65 65 66 65 64 63 61 63 61 62 60 60 60 62 61 61 61 62 61 62 62 64 63 63 62 61 63 63 63 62 62 62 62 62 61 62 62 62 62 62 62 61 61 61 61 61 60 60 60 60 61 62 62 62 62 63 63 63 65
64 64 64 63 63 63 63 64 63 62 63 63 62 61 62 62 62 63 64 64 62 61 61 61 60 61 61 60 60 61 61 63 63 62 62 62 62 63 62 61 61 62 62 62 62 61 61 61 61 61 61 61 61 60 60 60 60 59 59 59 59 59 59 59 59 60 60 61 62 62 62 63 63 64
63 63 63 63 62 63 63 63 63 63 63 64 63 62 63 63 63 65 66 65 64 61 61 62 61 62 62 62 62 61 61 60 62 61 61 62 62 62 62 62 61 61 62 62 62 61 61 60 60 60 60 60 59 58 58 58 58 58 58 58 58 57 57 57 58 59 59 59 60 61 62 62 63 62
64 64 63 62 62 63 62 62 61 62 63 62 62 61 62 63 63 64 65 65 64 64 63 63 63 63 63 63 62 62 61 61 61 61 61 60 61 61 59 59 59 60 60 60 60 61 61 61 60 60 60 60 59 59 58 58 58 57 57 57 57 57 57 57 56 57 57 57 58 58 59 60 60 61
64 64 64 63 63 62 62 62 62 63 62 62 62 62 63 63 64 65 65 65 65 64 63 63 62 64 61 62 62 64 64 61 59 60 61 61 60 61 60 58 57 58 57 57 59 62 61 60 60 60 60 60 60 59 58 58 57 57 56 55 54 55 56 56 56 56 56 56 57 58 58 59 59 60
62 62 63 64 63 63 63 62 63 62 62 62 63 63 63 62 64 64 64 64 64 64 64 63 62 61 62 63 62 63 64 62 61 59 59 60 61 62 60 59 59 59 59 60 60 59 58 59 59 57 59 60 60 60 59 58 57 56 56 54 54 54 53 54 55 55 55 55 56 56 56 56 58 59
60 60 61 59 60 62 63 63 63 63 64 65 65 66 65 63 62 62 63 63 63 63 63 61 61 63 64 62 62 64 63 63 62 62 60 59 59 60 62 62 62 60 60 59 57 59 60 60 60 58 58 58 60 60 59 60 59 58 56 55 56 55 54 54 54 54 54 54 54 54 54 55 56 57
61 62 61 59 59 61 64 67 66 65 66 64 63 63 63 63 62 62 61 61 60 61 62 62 61 61 61 61 62 60 61 60 60 60 60 59 60 61 60 62 62 60 59 59 57 58 58 57 58 58 59 62 61 59 60 59 61 60 57 56 56 56 56 54 54 54 54 54 54 54 54 55 56 57
60 61 61 62 64 68 68 68 68 67 66 66 65 65 64 63 63 62 61 61 60 59 59 59 60 59 58 57 59 57 57 61 62 62 63 62 61 61 60 59 61 60 59 57 59 59 59 58 58 59 58 57 60 57 57 58 57 57 57 58 57 57 56 56 55 55 55 54 54 54 53 54 55 56
63 62 62 63 64 68 67 66 67 68 66 65 64 63 63 64 65 62 61 60 60 60 59 58 58 57 57 57 58 58 58 60 62 63 62 61 58 57 56 56 58 61 61 60 58 59 60 60 59 59 58 58 58 57 56 58 58 57 56 56 57 57 57 57 57 56 55 54 54 54 53 54 55 55
63 63 62 61 63 63 65 68 67 67 65 63 63 63 63 62 61 62 62 60 60 61 60 59 59 58 58 58 59 59 57 58 59 60 59 59 58 58 57 57 56 59 60 59 58 58 60 60 59 58 58 58 58 56 57 57 57 56 55 55 56 56 56 56 57 57 57 56 55 56 55 55 55 55
65 65 65 64 65 67 66 66 67 68 68 65 63 62 63 62 61 60 59 60 63 62 60 59 59 60 60 59 60 61 62 62 61 60 58 58 58 58 56 56 55 58 60 58 57 55 56 56 56 54 57 55 56 54 55 55 56 57 56 56 56 56 56 56 56 56 56 56 55 55 55 55 55 55
65 67 67 67 65 67 67 68 67 67 67 66 66 66 66 65 64 61 58 58 58 60 61 61 59 61 62 61 63 63 63 62 59 58 57 58 58 58 57 58 57 58 57 55 55 55 54 56 54 55 56 52 55 56 56 54 54 55 55 55 55 55 55 55 56 56 56 55 55 54 54 53 54 54
64 66 66 67 67 69 68 68 67 66 65 65 65 63 61 59 59 58 56 59 60 62 61 61 62 62 62 61 62 62 61 60 59 59 59 58 58 57 57 55 56 56 56 56 55 54 55 56 52 51 50 50 50 51 52 52 53 53 53 53 54 54 54 55 55 55 55 54 54 54 53 53 53 53
67 67 68 69 68 68 67 67 66 66 66 65 64 63 62 61 59 56 58 58 57 58 57 58 57 56 58 57 60 60 58 58 59 58 56 55 56 55 54 52 52 51 52 54 53 50 48 50 47 48 48 48 49 50 51 51 52 52 52 53 53 53 54 54 54 54 54 54 54 53 52 52 51 51
65 67 69 68 67 66 66 65 59 61 62 64 63 62 61 60 57 56 57 59 58 57 56 56 56 54 54 54 53 53 53 58 58 58 57 56 52 52 51 50 50 50 49 51 50 47 47 50 49 47 47 49 49 49 50 50 50 51 52 53 53 53 53 53 53 53 53 53 53 54 54 52 52 52
67 69 67 67 67 65 67 57 57 59 63 63 63 62 60 58 57 56 55 56 64 57 56 55 55 55 55 55 54 54 53 53 54 58 56 54 51 51 51 50 50 47 48 48 47 49 46 48 49 48 48 49 49 47 47 50 52 53 52 52 53 52 52 53 52 53 53 53 53 53 53 52 52 55
68 69 68 67 66 66 61 55 56 57 61 63 62 61 60 58 57 56 55 55 56 58 59 60 61 61 57 61 62 62 57 56 56 59 59 56 55 52 52 49 45 45 46 48 52 49 47 48 46 46 43 41 43 47 49 52 55 55 55 55 55 54 54 53 52 52 52 52 53 53 52 51 52 56
68 66 66 67 61 56 54 53 52 53 55 60 61 60 59 58 56 59 60 59 57 58 56 56 56 57 56 53 53 52 52 59 62 59 58 59 59 54 46 45 45 45 44 48 45 46 43 44 41 44 41 41 43 49 53 54 55 54 54 55 54 54 55 55 53 52 51 51 52 52 52 51 51 55
66 66 65 65 59 53 52 50 50 50 51 53 59 60 59 60 59 56 59 58 57 57 57 57 56 53 52 52 50 49 50 47 46 45 47 45 45 46 46 43 43 43 43 46 49 47 44 43 44 47 48 51 52 52 53 54 54 55 56 56 55 55 55 55 55 55 53 52 51 50 51 51 51 54
65 65 66 64 59 52 51 50 48 48 50 52 58 60 50 50 53 58 58 58 56 54 52 51 50 49 50 50 49 48 46 46 48 47 46 46 45 44 42 42 43 41 42 47 49 49 48 49 50 52 53 53 52 52 53 54 56 55 55 54 54 55 56 55 55 56 57 57 59 56 54 51 52 52
65 65 64 63 54 51 48 46 46 47 49 51 56 51 50 52 53 55 56 57 55 54 53 52 52 52 51 51 48 48 48 48 51 48 48 47 46 46 45 47 47 47 47 49 49 51 52 52 56 55 54 54 54 55 57 54 53 55 55 55 55 55 55 55 55 55 56 57 60 56 52 51 51 52
63 62 64 57 48 45 44 45 47 48 49 54 49 48 51 53 54 56 57 55 55 55 52 52 52 52 49 48 49 49 49 47 52 50 50 50 48 49 48 49 48 48 49 50 51 53 55 55 55 56 56 55 57 56 55 56 56 55 54 56 56 57 57 57 56 58 58 59 60 63 60 57 55 54
59 52 47 45 46 46 45 46 48 48 49 49 49 49 51 54 56 57 57 54 53 53 53 51 52 48 50 50 49 50 52 52 52 52 50 48 48 47 47 48 50 50 50 52 52 52 53 55 56 57 57 58 58 57 56 55 55 56 56 56 57 60 61 60 59 59 60 62 63 63 61 59 57 56
51 49 48 48 48 49 52 56 58 59 59 52 52 52 53 56 55 55 55 53 52 52 48 49 50 49 48 47 50 52 52 51 50 48 46 46 44 44 44 45 48 50 49 50 51 53 55 56 56 56 56 58 59 57 56 56 55 56 56 57 58 59 60 61 62 65 65 63 62 62 63 61 59 58
55 55 56 57 55 53 56 57 56 56 55 55 54 56 55 55 54 53 53 52 52 51 50 50 49 48 48 49 50 50 50 48 46 45 46 42 41 43 44 47 47 48 49 51 51 53 54 56 57 58 58 60 59 57 57 56 55 56 57 59 59 57 60 63 64 65 65 64 63 64 63 62 60 60
58 57 55 55 59 59 58 56 56 56 57 57 56 54 54 54 55 55 52 52 52 52 50 48 50 50 50 48 47 45 42 40 41 45 43 43 43 42 44 45 47 47 48 50 51 55 56 56 56 58 59 60 58 57 57 57 56 57 57 58 58 60 61 61 62 64 65 65 64 66 66 63 61 60
59 59 56 56 55 55 55 53 54 54 55 56 54 54 52 51 50 51 48 47 49 50 49 48 49 46 46 46 44 41 39 43 41 45 46 46 43 45 44 43 45 46 46 48 50 53 56 57 57 58 59 60 59 58 57 56 56 57 57 57 57 57 59 61 62 63 64 63 61 63 63 64 64 61
56 55 52 48 50 51 50 49 50 49 48 50 51 50 51 50 49 48 47 46 45 47 47 46 44 45 44 43 39 38 37 42 39 43 44 44 45 43 41 41 42 44 48 48 49 51 53 55 55 57 58 59 58 58 57 56 56 57 57 57 56 55 55 58 58 59 61 63 63 61 64 65 66 64
55 53 52 50 49 47 46 46 45 47 46 48 47 46 47 49 49 47 44 44 46 44 43 43 43 43 41 38 36 37 37 38 37 38 41 41 44 41 40 39 40 44 45 48 49 51 52 53 54 54 56 56 55 55 59 60 58 56 56 56 55 54 55 57 57 58 59 62 64 63 62 63 65 65
55 53 52 50 50 48 45 46 47 46 45 47 46 47 46 45 46 46 44 46 45 44 42 44 44 41 37 35 37 35 35 36 37 38 38 38 38 39 38 39 40 41 44 48 48 50 51 51 52 53 53 52 51 50 51 58 60 58 56 55 55 55 55 56 57 58 59 62 65 64 62 64 64 65
52 52 52 51 49 47 47 47 47 49 46 46 46 46 45 44 45 46 49 48 46 44 44 44 41 37 35 34 35 35 35 36 36 37 37 37 38 38 37 37 39 42 44 47 48 49 50 50 51 51 52 51 50 50 50 53 54 55 59 56 56 55 55 56 56 56 58 61 63 64 62 63 62 63
49 50 49 47 48 47 47 47 47 47 47 47 46 47 45 45 45 47 48 47 45 45 43 39 35 34 33 34 33 34 36 36 36 37 36 38 37 37 36 35 37 40 43 46 48 50 52 51 51 51 53 53 50 50 51 53 54 55 54 56 56 55 55 55 55 55 56 58 61 64 66 64 65 66
52 51 49 48 48 48 47 47 48 48 49 48 47 46 46 46 43 43 44 43 42 43 41 37 34 35 35 34 36 38 35 35 35 36 36 37 37 36 36 37 36 39 42 45 47 48 50 50 50 52 54 55 54 54 55 54 54 57 54 50 54 55 55 55 55 55 55 55 58 62 66 68 64 61
50 50 50 50 49 50 49 50 49 49 48 48 46 46 45 43 42 43 42 43 44 42 37 32 33 36 37 35 35 35 34 36 35 34 36 35 35 36 37 37 36 38 44 45 46 47 48 49 50 52 54 55 58 58 58 57 57 55 53 53 50 53 55 56 55 55 54 54 55 56 61 65 64 66
50 49 49 49 49 48 48 48 48 48 47 47 47 45 44 44 43 43 44 41 41 38 32 32 36 38 36 35 37 33 34 34 34 34 35 35 36 37 38 39 37 39 43 45 46 47 47 49 53 52 56 56 57 56 52 50 50 51 52 53 51 51 51 53 56 55 54 53 54 55 60 63 63 64
49 48 48 48 48 46 46 47 47 46 46 44 43 43 45 46 45 45 44 46 43 42 39 37 38 36 34 34 34 36 33 34 35 33 34 34 36 38 38 37 37 38 43 44 45 46 48 51 53 54 54 55 56 52 50 51 51 52 52 53 54 52 52 53 53 53 56 54 53 52 59 63 64 63
49 48 47 47 48 46 47 46 47 43 42 43 42 43 41 42 41 43 42 42 42 38 34 34 35 34 34 33 34 35 33 32 33 33 34 36 36 36 36 35 36 38 44 45 44 45 47 51 53 51 53 54 55 54 52 51 52 52 52 53 53 53 54 54 54 53 54 54 53 53 52 53 58 61
47 47 46 47 46 48 47 46 43 44 44 43 42 43 41 41 42 42 42 40 36 34 35 35 34 34 35 34 33 32 32 33 34 37 36 36 36 36 36 35 36 39 41 43 43 45 47 49 50 51 50 52 54 53 52 52 52 52 52 53 53 52 53 55 56 55 55 55 53 53 53 53 52 52
47 46 45 43 41 41 43 43 42 43 43 42 40 40 40 41 40 40 41 39 35 34 36 35 34 34 35 34 33 32 34 37 35 35 35 35 35 36 36 34 36 37 39 43 42 44 46 48 48 50 50 51 52 54 54 54 53 52 52 51 51 52 53 54 53 54 54 55 53 52 53 53 53 52